Location: Leo
(52.0556°N, 112.3605°W)
Time: 15:14:14
(UTC+00:00)

Envisat - Visible Passes

Search period start: 09 June 2023 00:00
Search period end: 19 June 2023 00:00
Orbit: 763 x 765 km, 98.2° (Epoch: 08 June)

Date Brightness Start Highest point End Pass type
(mag) Time Alt. Az. Time Alt. Az. Time Alt. Az.
10 Jun 5.7 09:48:51 10° ENE 09:50:38 12° E 09:52:24 10° ESE visible
12 Jun 5.4 10:12:09 10° NE 10:15:43 19° E 10:19:15 10° SE visible
15 Jun 5.6 10:00:12 10° NE 10:03:06 15° E 10:05:59 10° ESE visible
18 Jun 5.7 09:48:36 10° ENE 09:50:27 12° E 09:52:19 10° ESE visible
